This is the latest recevied weather packets stored in our database for station/object EA1BQO-1. If no packets are shown the sender has not sent any weather packets the latest 10 day(s).
| Time | Temp. | Humidity | Pressure | Rain* | Wind** | Luminosity | Snow |
|---|---|---|---|---|---|---|---|
| 1777380532 | 21.67° C | 50% | 1006.7 hPa | 0 mm | - | - | - |
| 1777379932 | 21.67° C | 50% | 1006.9 hPa | 0 mm | - | - | - |
| 1777379332 | 21.11° C | 51% | 1007 hPa | 0 mm | - | - | - |
| 1777378732 | 21.11° C | 51% | 1007.1 hPa | 0 mm | - | - | - |
| 1777378132 | 21.11° C | 52% | 1007.2 hPa | 0 mm | - | - | - |
| 1777377532 | 21.11° C | 52% | 1007.4 hPa | 0 mm | - | - | - |
| 1777376932 | 21.67° C | 47% | 1007.5 hPa | 0 mm | - | - | - |
| 1777376332 | 23.33° C | 41% | 1007.7 hPa | 0 mm | - | - | - |
| 1777375732 | 23.89° C | 36% | 1008 hPa | 0 mm | - | - | - |
| 1777375132 | 23.89° C | 41% | 1008 hPa | 0 mm | - | - | - |
| 1777374532 | 23.33° C | 40% | 1008.3 hPa | 0 mm | - | - | - |
| 1777373932 | 23.33° C | 43% | 1008.3 hPa | 0 mm | - | - | - |
| 1777373332 | 22.78° C | 46% | 1008.6 hPa | 0 mm | - | - | - |
| 1777372732 | 21.67° C | 50% | 1008.6 hPa | 0 mm | - | - | - |
| 1777372132 | 21.11° C | 53% | 1008.8 hPa | 0 mm | - | - | - |
| 1777371532 | 21.11° C | 56% | 1009.1 hPa | 0 mm | - | - | - |
| 1777370932 | 20.56° C | 56% | 1009 hPa | 0 mm | - | - | - |
| 1777370331 | 20° C | 58% | 1009.1 hPa | 0 mm | - | - | - |
| 1777369731 | 19.44° C | 61% | 1009.3 hPa | 0 mm | - | - | - |
| 1777369131 | 18.89° C | 64% | 1009.2 hPa | 0 mm | - | - | - |
| 1777368531 | 18.33° C | 64% | 1009.5 hPa | 0 mm | - | - | - |
| 1777367931 | 17.78° C | 67% | 1009.6 hPa | 0 mm | - | - | - |
| 1777367331 | 17.78° C | 68% | 1009.6 hPa | 0 mm | - | - | - |
| 1777366731 | 17.22° C | 70% | 1009.7 hPa | 0 mm | - | - | - |
| 1777366131 | 16.67° C | 71% | 1009.8 hPa | 0 mm | - | - | - |
* Rain latest hour (hover to see other rain measurements)
** Current wind speed in m/s (hover to see current wind gust speed)